,,,PA_Meas_PMT16A,,PR_Meas_QMR101_102,,RH_Meas_QMH101,,SR_Meas_QMS101,,TA_Meas_QMH101,,GenWind,,GenWind,
date,time,status,PA,status,PR,status,RH,status,SR,status,TA,status,DirAvg,status,SpdAvg,
2009-09-28, 00:00:04,VALID,997.918,VALID,0,VALID,75.1136,VALID,0,VALID,22.942,VALID,129,VALID,1.5832,
2009-09-28, 00:01:04,VALID,997.85,VALID,0,VALID,75.4875,VALID,0,VALID,22.9047,VALID,115,VALID,1.74258,
2009-09-28, 00:02:04,VALID,997.879,VALID,0,VALID,75.9376,VALID,0,VALID,22.8055,VALID,129,VALID,1.75898,
2009-09-28, 00:03:04,VALID,997.889,VALID,0,VALID,76.4946,VALID,0,VALID,22.7062,VALID,139,VALID,1.54141,
2009-09-28, 00:04:04,VALID,997.861,VALID,0,VALID,76.7235,VALID,0,VALID,22.6494,VALID,139,VALID,1.42148,
2009-09-28, 00:05:04,VALID,997.854,VALID,0,VALID,77.0515,VALID,0,VALID,22.6104,VALID,130,VALID,1.10625,
2009-09-28, 00:06:04,VALID,997.835,VALID,0,VALID,76.8989,VALID,0,VALID,22.5714,VALID,132,VALID,0.990625,
2009-09-28, 00:07:04,VALID,997.83,VALID,0,VALID,76.815,VALID,0,VALID,22.5714,VALID,128,VALID,0.908984,
2009-09-28, 00:08:04,VALID,997.826,VALID,0,VALID,76.8303,VALID,0,VALID,22.5714,VALID,122,VALID,1.65,
2009-09-28, 00:09:04,VALID,997.803,VALID,0,VALID,76.7921,VALID,0,VALID,22.5111,VALID,120,VALID,1.31055,
2009-09-28, 00:10:04,VALID,997.781,VALID,0,VALID,77.0363,VALID,0,VALID,22.4933,VALID,123,VALID,0.879687,
2009-09-28, 00:11:04,VALID,997.752,VALID,0,VALID,77.2346,VALID,0,VALID,22.4136,VALID,117,VALID,0.586328,
2009-09-28, 00:12:04,VALID,997.746,VALID,0,VALID,77.4178,VALID,0,VALID,22.3763,VALID,341,VALID,0.345313,
2009-09-28, 00:13:04,VALID,997.776,VALID,0,VALID,77.4635,VALID,0,VALID,22.3551,VALID,294,VALID,0.138281,
2009-09-28, 00:14:04,VALID,997.773,VALID,0,VALID,77.4483,VALID,0,VALID,22.3373,VALID,294,VALID,0,
2009-09-28, 00:15:04,VALID,997.706,VALID,0,VALID,77.6314,VALID,0,VALID,22.2983,VALID,294,VALID,0.176953,
2009-09-28, 00:16:04,VALID,997.744,VALID,0,VALID,77.8679,VALID,0,VALID,22.2576,VALID,305,VALID,0.371484,
2009-09-28, 00:17:04,VALID,997.704,VALID,0,VALID,78.669,VALID,0,VALID,22.2397,VALID,99,VALID,1.20469,
2009-09-28, 00:18:04,VALID,997.724,VALID,0,VALID,79.4472,VALID,0,VALID,22.1617,VALID,94,VALID,1.12539,
2009-09-28, 00:19:04,VALID,997.752,VALID,0,VALID,80.1797,VALID,0,VALID,22.0642,VALID,100,VALID,1.27148,
2009-09-28, 00:20:04,VALID,997.698,VALID,0,VALID,80.5764,VALID,0,VALID,21.9667,VALID,79,VALID,0.720312,
2009-09-28, 00:21:04,VALID,997.712,VALID,0,VALID,80.6527,VALID,0,VALID,21.887,VALID,52,VALID,0.160156,
2009-09-28, 00:22:04,VALID,997.701,VALID,0,VALID,80.9655,VALID,0,VALID,21.8692,VALID,4,VALID,0.626953,
2009-09-28, 00:23:04,VALID,997.715,VALID,0,VALID,80.8053,VALID,0,VALID,21.8106,VALID,346,VALID,0.84375,
2009-09-28, 00:24:04,VALID,997.751,VALID,0,VALID,81.2326,VALID,0,VALID,21.7505,VALID,349,VALID,1.09375,
2009-09-28, 00:25:04,VALID,997.723,VALID,0,VALID,82.0032,VALID,0,VALID,21.6936,VALID,359,VALID,1.18945,
2009-09-28, 00:26:04,VALID,997.696,VALID,0,VALID,82.3541,VALID,0,VALID,21.6741,VALID,11,VALID,1.36172,
2009-09-28, 00:27:04,VALID,997.697,VALID,0,VALID,82.4152,VALID,0,VALID,21.653,VALID,16,VALID,1.33047,
2009-09-28, 00:28:04,VALID,997.681,VALID,0,VALID,82.1405,VALID,0,VALID,21.6725,VALID,33,VALID,1.71992,
2009-09-28, 00:29:04,VALID,997.658,VALID,0,VALID,82.4228,VALID,0,VALID,21.6546,VALID,36,VALID,1.64336,
2009-09-28, 00:30:04,VALID,997.622,VALID,0,VALID,82.9416,VALID,0,VALID,21.6156,VALID,40,VALID,1.47422,
2009-09-28, 00:31:04,VALID,997.612,VALID,0,VALID,83.5367,VALID,0,VALID,21.575,VALID,46,VALID,1.66875,
2009-09-28, 00:32:04,VALID,997.597,VALID,0,VALID,83.8495,VALID,0,VALID,21.536,VALID,37,VALID,1.58047,
2009-09-28, 00:33:04,VALID,997.62,VALID,0,VALID,83.7885,VALID,0,VALID,21.5165,VALID,19,VALID,0.747266,
2009-09-28, 00:34:04,VALID,997.624,VALID,0,VALID,84.0326,VALID,0,VALID,21.419,VALID,28,VALID,0.9125,
2009-09-28, 00:35:04,VALID,997.627,VALID,0,VALID,84.9177,VALID,0,VALID,21.38,VALID,26,VALID,1.26758,
2009-09-28, 00:36:04,VALID,997.624,VALID,0,VALID,85.0474,VALID,0,VALID,21.3215,VALID,26,VALID,0.943359,
2009-09-28, 00:37:04,VALID,997.631,VALID,0,VALID,85.4746,VALID,0,VALID,21.3036,VALID,6,VALID,0.807813,
2009-09-28, 00:38:04,VALID,997.612,VALID,0,VALID,85.5586,VALID,0,VALID,21.2841,VALID,337,VALID,0.8125,
2009-09-28, 00:39:04,VALID,997.61,VALID,0,VALID,85.6272,VALID,0,VALID,21.3231,VALID,330,VALID,0.753906,
2009-09-28, 00:40:04,VALID,997.567,VALID,0,VALID,85.2457,VALID,0,VALID,21.3816,VALID,352,VALID,0.824609,
2009-09-28, 00:41:04,VALID,997.561,VALID,0,VALID,85.055,VALID,0,VALID,21.419,VALID,7,VALID,0.805078,
2009-09-28, 00:42:04,VALID,997.572,VALID,0,VALID,84.643,VALID,0,VALID,21.4791,VALID,30,VALID,1.00977,
2009-09-28, 00:43:04,VALID,997.572,VALID,0,VALID,84.4675,VALID,0,VALID,21.4986,VALID,41,VALID,1.34102,
2009-09-28, 00:44:04,VALID,997.575,VALID,0,VALID,84.3607,VALID,0,VALID,21.458,VALID,31,VALID,0.85,
2009-09-28, 00:45:04,VALID,997.53,VALID,0,VALID,84.5972,VALID,0,VALID,21.4401,VALID,21,VALID,0.898828,
2009-09-28, 00:46:04,VALID,997.527,VALID,0,VALID,84.704,VALID,0,VALID,21.3605,VALID,29,VALID,0.663281,
2009-09-28, 00:47:04,VALID,997.482,VALID,0,VALID,85.0703,VALID,0,VALID,21.3426,VALID,30,VALID,0.550781,
2009-09-28, 00:48:04,VALID,997.474,VALID,0,VALID,85.2534,VALID,0,VALID,21.3231,VALID,24,VALID,0.508203,
2009-09-28, 00:49:04,VALID,997.45,VALID,0,VALID,85.2,VALID,0,VALID,21.3036,VALID,34,VALID,0.708203,
2009-09-28, 00:50:04,VALID,997.413,VALID,0,VALID,85.6272,VALID,0,VALID,21.263,VALID,38,VALID,0.844922,
2009-09-28, 00:51:04,VALID,997.438,VALID,0,VALID,85.467,VALID,0,VALID,21.2841,VALID,31,VALID,0.449609,
2009-09-28, 00:52:04,VALID,997.435,VALID,0,VALID,85.261,VALID,0,VALID,21.2646,VALID,31,VALID,0.282422,
2009-09-28, 00:53:04,VALID,997.439,VALID,0,VALID,85.1771,VALID,0,VALID,21.2256,VALID,31,VALID,0.03125,
2009-09-28, 00:54:04,VALID,997.446,VALID,0,VALID,85.3449,VALID,0,VALID,21.1671,VALID,31,VALID,0.0410156,
2009-09-28, 00:55:04,VALID,997.446,VALID,0,VALID,85.528,VALID,0,VALID,21.1281,VALID,31,VALID,0,
2009-09-28, 00:56:05,VALID,997.452,VALID,0,VALID,85.8485,VALID,0,VALID,21.068,VALID,59,VALID,0.5125,
2009-09-28, 00:57:05,VALID,997.431,VALID,0,VALID,86.3749,VALID,0,VALID,21.0501,VALID,86,VALID,0.546484,
2009-09-28, 00:58:05,VALID,997.462,VALID,0,VALID,86.3902,VALID,0,VALID,21.029,VALID,86,VALID,0.592188,
2009-09-28, 00:59:05,VALID,997.451,VALID,0,VALID,86.3597,VALID,0,VALID,21.0501,VALID,89,VALID,0.716406,
2009-09-28, 01:00:05,VALID,997.369,VALID,0,VALID,86.291,VALID,0,VALID,21.0696,VALID,89,VALID,0.372266,
2009-09-28, 01:01:05,VALID,997.366,VALID,0,VALID,86.0316,VALID,0,VALID,21.0696,VALID,84,VALID,0.553906,
2009-09-28, 01:02:05,VALID,997.353,VALID,0,VALID,86.2223,VALID,0,VALID,21.0696,VALID,64,VALID,0.925,
2009-09-28, 01:03:05,VALID,997.324,VALID,0,VALID,85.5357,VALID,0,VALID,21.1086,VALID,19,VALID,0.983203,
2009-09-28, 01:04:05,VALID,997.305,VALID,0,VALID,85.0932,VALID,0,VALID,21.1086,VALID,18,VALID,0.730078,
2009-09-28, 01:05:05,VALID,997.298,VALID,0,VALID,85.116,VALID,0,VALID,21.0891,VALID,18,VALID,0.702344,
2009-09-28, 01:06:05,VALID,997.299,VALID,0,VALID,85.4136,VALID,0,VALID,21.0306,VALID,18,VALID,0.339063,
2009-09-28, 01:07:05,VALID,997.287,VALID,0,VALID,85.7417,VALID,0,VALID,20.99,VALID,18,VALID,0.0328125,
2009-09-28, 01:08:05,VALID,997.276,VALID,0,VALID,86.146,VALID,0,VALID,20.9916,VALID,82,VALID,0.604688,
2009-09-28, 01:09:05,VALID,997.276,VALID,0,VALID,86.2376,VALID,0,VALID,20.9916,VALID,88,VALID,0.572656,
2009-09-28, 01:10:05,VALID,997.294,VALID,0,VALID,86.2757,VALID,0,VALID,20.951,VALID,76,VALID,0.862891,
2009-09-28, 01:11:05,VALID,997.264,VALID,0,VALID,86.6954,VALID,0,VALID,20.9721,VALID,59,VALID,0.821484,
2009-09-28, 01:12:05,VALID,997.28,VALID,0,VALID,86.7564,VALID,0,VALID,20.9916,VALID,59,VALID,0.229687,
2009-09-28, 01:13:05,VALID,997.294,VALID,0,VALID,86.7411,VALID,0,VALID,20.9705,VALID,59,VALID,0.260938,
2009-09-28, 01:14:05,VALID,997.278,VALID,0,VALID,87.2142,VALID,0,VALID,20.9526,VALID,59,VALID,0.141016,
2009-09-28, 01:15:05,VALID,997.269,VALID,0,VALID,87.5194,VALID,0,VALID,20.9721,VALID,59,VALID,0.121875,
2009-09-28, 01:16:05,VALID,997.281,VALID,0,VALID,87.6491,VALID,0,VALID,20.951,VALID,59,VALID,0.179297,
2009-09-28, 01:17:05,VALID,997.223,VALID,0,VALID,87.5194,VALID,0,VALID,20.9916,VALID,59,VALID,0,
2009-09-28, 01:18:05,VALID,997.196,VALID,0,VALID,87.527,VALID,0,VALID,20.9916,VALID,59,VALID,0,
2009-09-28, 01:19:05,VALID,997.245,VALID,0,VALID,87.4202,VALID,0,VALID,20.951,VALID,59,VALID,0.123438,
2009-09-28, 01:20:05,VALID,997.182,VALID,0,VALID,87.8246,VALID,0,VALID,20.9721,VALID,59,VALID,0.365625,
2009-09-28, 01:21:05,VALID,997.154,VALID,0,VALID,87.9085,VALID,0,VALID,20.951,VALID,59,VALID,0.287109,
2009-09-28, 01:22:05,VALID,997.196,VALID,0,VALID,87.7406,VALID,0,VALID,21.0111,VALID,59,VALID,0,
2009-09-28, 01:23:05,VALID,997.22,VALID,0,VALID,87.6109,VALID,0,VALID,21.0111,VALID,59,VALID,0,
2009-09-28, 01:24:05,VALID,997.246,VALID,0,VALID,87.6262,VALID,0,VALID,21.0111,VALID,59,VALID,0.297266,
2009-09-28, 01:25:05,VALID,997.186,VALID,0,VALID,87.733,VALID,0,VALID,20.99,VALID,59,VALID,0.309375,
2009-09-28, 01:26:05,VALID,997.105,VALID,0,VALID,87.5804,VALID,0,VALID,20.99,VALID,59,VALID,0.0117188,
2009-09-28, 01:27:05,VALID,997.128,VALID,0,VALID,87.5041,VALID,0,VALID,20.99,VALID,59,VALID,0.0625,
2009-09-28, 01:28:05,VALID,997.123,VALID,0,VALID,87.4431,VALID,0,VALID,20.99,VALID,59,VALID,0.178906,
2009-09-28, 01:29:05,VALID,997.107,VALID,0,VALID,87.4202,VALID,0,VALID,20.9932,VALID,59,VALID,0,
2009-09-28, 01:30:05,VALID,997.102,VALID,0,VALID,87.588,VALID,0,VALID,20.9721,VALID,59,VALID,0.297656,
2009-09-28, 01:31:05,VALID,997.088,VALID,0,VALID,87.3057,VALID,0,VALID,21.0127,VALID,59,VALID,0,
2009-09-28, 01:32:05,VALID,997.131,VALID,0,VALID,87.321,VALID,0,VALID,20.9721,VALID,59,VALID,0.228906,
2009-09-28, 01:33:05,VALID,997.081,VALID,0,VALID,87.0616,VALID,0,VALID,20.9737,VALID,59,VALID,0.439453,
2009-09-28, 01:34:05,VALID,997.099,VALID,0,VALID,86.9624,VALID,0,VALID,20.9542,VALID,76,VALID,0.603125,
2009-09-28, 01:35:05,VALID,997.103,VALID,0,VALID,86.4131,VALID,0,VALID,20.9542,VALID,81,VALID,0.391016,
2009-09-28, 01:36:05,VALID,997.069,VALID,0,VALID,85.9706,VALID,0,VALID,20.9542,VALID,81,VALID,0.137109,
2009-09-28, 01:37:05,VALID,997.08,VALID,0,VALID,85.6883,VALID,0,VALID,20.9347,VALID,81,VALID,0.447266,
2009-09-28, 01:38:05,VALID,997.027,VALID,0,VALID,85.5586,VALID,0,VALID,20.8746,VALID,79,VALID,0.382422,
2009-09-28, 01:39:05,VALID,997.005,VALID,0,VALID,85.5586,VALID,0,VALID,20.8372,VALID,78,VALID,0.233203,
2009-09-28, 01:40:05,VALID,996.993,VALID,0,VALID,85.8485,VALID,0,VALID,20.7771,VALID,78,VALID,0.321484,
2009-09-28, 01:41:05,VALID,996.986,VALID,0,VALID,85.9095,VALID,0,VALID,20.7592,VALID,78,VALID,0.510156,
2009-09-28, 01:42:05,VALID,996.985,VALID,0,VALID,86.2834,VALID,0,VALID,20.6991,VALID,79,VALID,1.43789,
2009-09-28, 01:43:05,VALID,996.975,VALID,0,VALID,86.8632,VALID,0,VALID,20.7381,VALID,89,VALID,1.81797,
2009-09-28, 01:44:05,VALID,996.949,VALID,0,VALID,87.0006,VALID,0,VALID,20.7771,VALID,96,VALID,1.24063,
2009-09-28, 01:45:05,VALID,996.914,VALID,0,VALID,87.1837,VALID,0,VALID,20.8145,VALID,97,VALID,1.38359,
2009-09-28, 01:46:05,VALID,996.93,VALID,0,VALID,86.764,VALID,0,VALID,20.8941,VALID,90,VALID,1.49102,
2009-09-28, 01:47:05,VALID,996.943,VALID,0,VALID,86.7793,VALID,0,VALID,20.9526,VALID,82,VALID,1.51914,
2009-09-28, 01:48:05,VALID,996.928,VALID,0,VALID,86.3978,VALID,0,VALID,20.9721,VALID,83,VALID,0.731641,
2009-09-28, 01:49:05,VALID,996.929,VALID,0,VALID,86.2071,VALID,0,VALID,20.9721,VALID,83,VALID,0.272266,
2009-09-28, 01:50:05,VALID,996.909,VALID,0,VALID,85.6806,VALID,0,VALID,20.8746,VALID,28,VALID,0.538672,
2009-09-28, 01:51:05,VALID,996.891,VALID,0,VALID,86.146,VALID,0,VALID,20.756,VALID,344,VALID,0.651172,
2009-09-28, 01:52:05,VALID,996.908,VALID,0,VALID,86.7488,VALID,0,VALID,20.7186,VALID,340,VALID,0.578125,
2009-09-28, 01:53:05,VALID,996.896,VALID,0,VALID,86.9777,VALID,0,VALID,20.6796,VALID,342,VALID,1.05664,
2009-09-28, 01:54:05,VALID,996.883,VALID,0,VALID,87.0311,VALID,0,VALID,20.6796,VALID,315,VALID,0.597266,
2009-09-28, 01:55:05,VALID,996.876,VALID,0,VALID,87.3363,VALID,0,VALID,20.7186,VALID,328,VALID,0.723437,
2009-09-28, 01:56:05,VALID,996.907,VALID,0,VALID,87.2676,VALID,0,VALID,20.7576,VALID,341,VALID,0.347656,
2009-09-28, 01:57:05,VALID,996.879,VALID,0,VALID,87.1074,VALID,0,VALID,20.8161,VALID,352,VALID,0.662109,
2009-09-28, 01:58:05,VALID,996.856,VALID,0,VALID,86.8861,VALID,0,VALID,20.8551,VALID,360,VALID,0.323438,
2009-09-28, 01:59:05,VALID,996.85,VALID,0,VALID,86.6038,VALID,0,VALID,20.9136,VALID,360,VALID,0.414063,
2009-09-28, 02:00:05,VALID,996.823,VALID,0,VALID,86.3292,VALID,0,VALID,20.9705,VALID,32,VALID,0.655078,
2009-09-28, 02:01:05,VALID,996.793,VALID,0,VALID,85.6501,VALID,0,VALID,21.0696,VALID,24,VALID,0.655078,
2009-09-28, 02:02:05,VALID,996.824,VALID,0,VALID,85.4212,VALID,0,VALID,21.068,VALID,24,VALID,0.798437,
2009-09-28, 02:03:05,VALID,996.844,VALID,0,VALID,84.849,VALID,0,VALID,21.068,VALID,36,VALID,0.459375,
2009-09-28, 02:04:05,VALID,996.81,VALID,0,VALID,85.1237,VALID,0,VALID,21.0501,VALID,40,VALID,0.390234,
2009-09-28, 02:05:05,VALID,996.779,VALID,0,VALID,85.8103,VALID,0,VALID,21.0306,VALID,27,VALID,0.5125,
2009-09-28, 02:06:05,VALID,996.769,VALID,0,VALID,85.9248,VALID,0,VALID,21.029,VALID,27,VALID,0.728906,
2009-09-28, 02:07:05,VALID,996.771,VALID,0,VALID,85.2457,VALID,0,VALID,21.1281,VALID,2,VALID,0.208594,
2009-09-28, 02:08:05,VALID,996.763,VALID,0,VALID,85.1313,VALID,0,VALID,21.1476,VALID,2,VALID,0.286328,
2009-09-28, 02:09:05,VALID,996.737,VALID,0,VALID,84.9634,VALID,0,VALID,21.1866,VALID,4,VALID,0.541016,
2009-09-28, 02:10:05,VALID,996.742,VALID,0,VALID,84.9253,VALID,0,VALID,21.2256,VALID,23,VALID,0.864062,
2009-09-28, 02:11:05,VALID,996.69,VALID,0,VALID,84.8185,VALID,0,VALID,21.2256,VALID,23,VALID,0.534766,
2009-09-28, 02:12:05,VALID,996.685,VALID,0,VALID,84.9177,VALID,0,VALID,21.2256,VALID,16,VALID,0.934766,
2009-09-28, 02:13:05,VALID,996.652,VALID,0,VALID,84.788,VALID,0,VALID,21.2256,VALID,19,VALID,1.0207,
2009-09-28, 02:14:05,VALID,996.653,VALID,0,VALID,84.5591,VALID,0,VALID,21.185,VALID,18,VALID,0.261328,
2009-09-28, 02:15:05,VALID,996.631,VALID,0,VALID,84.8414,VALID,0,VALID,21.1671,VALID,18,VALID,0.427344,
2009-09-28, 02:16:05,VALID,996.642,VALID,0,VALID,85.0626,VALID,0,VALID,21.1281,VALID,18,VALID,0.102344,
2009-09-28, 02:17:05,VALID,996.626,VALID,0,VALID,85.3068,VALID,0,VALID,21.0891,VALID,18,VALID,0.43125,
2009-09-28, 02:18:05,VALID,996.627,VALID,0,VALID,85.3907,VALID,0,VALID,21.0696,VALID,20,VALID,0.439063,
2009-09-28, 02:19:05,VALID,996.666,VALID,0,VALID,85.3907,VALID,0,VALID,21.0501,VALID,72,VALID,0.435937,
2009-09-28, 02:20:05,VALID,996.636,VALID,0,VALID,85.4136,VALID,0,VALID,21.0501,VALID,72,VALID,0.355469,
2009-09-28, 02:21:05,VALID,996.627,VALID,0,VALID,85.6349,VALID,0,VALID,21.0485,VALID,72,VALID,0.0355469,
2009-09-28, 02:22:05,VALID,996.632,VALID,0,VALID,85.5662,VALID,0,VALID,21.0696,VALID,29,VALID,0.392969,
2009-09-28, 02:23:05,VALID,996.64,VALID,0,VALID,85.5433,VALID,0,VALID,21.0891,VALID,29,VALID,0.238672,
2009-09-28, 02:24:05,VALID,996.613,VALID,0,VALID,85.4441,VALID,0,VALID,21.1086,VALID,29,VALID,0.397656,
2009-09-28, 02:25:05,VALID,996.641,VALID,0,VALID,85.3755,VALID,0,VALID,21.1086,VALID,40,VALID,0.575,
2009-09-28, 02:26:05,VALID,996.564,VALID,0,VALID,85.5662,VALID,0,VALID,21.0696,VALID,51,VALID,0.854688,
2009-09-28, 02:27:05,VALID,996.585,VALID,0,VALID,85.7188,VALID,0,VALID,21.0696,VALID,40,VALID,0.998438,
2009-09-28, 02:28:05,VALID,996.608,VALID,0,VALID,85.0855,VALID,0,VALID,21.0111,VALID,60,VALID,0.833984,
2009-09-28, 02:29:05,VALID,996.513,VALID,0,VALID,85.7264,VALID,0,VALID,20.9315,VALID,25,VALID,1.06875,
2009-09-28, 02:30:05,VALID,996.581,VALID,0,VALID,85.8027,VALID,0,VALID,20.8925,VALID,3,VALID,0.356641,
2009-09-28, 02:31:05,VALID,996.595,VALID,0,VALID,86.3139,VALID,0,VALID,20.9136,VALID,85,VALID,0.996875,
2009-09-28, 02:32:05,VALID,996.526,VALID,0,VALID,85.7035,VALID,0,VALID,21.0501,VALID,26,VALID,1.32461,
2009-09-28, 02:33:05,VALID,996.577,VALID,0,VALID,85.0016,VALID,0,VALID,21.1671,VALID,322,VALID,1.01797,
2009-09-28, 02:34:05,VALID,996.543,VALID,0,VALID,84.9863,VALID,0,VALID,21.0875,VALID,309,VALID,0.697266,
2009-09-28, 02:35:05,VALID,996.552,VALID,0,VALID,85.2839,VALID,0,VALID,21.0891,VALID,330,VALID,0.746484,
2009-09-28, 02:36:05,VALID,996.591,VALID,0,VALID,85.055,VALID,0,VALID,21.0501,VALID,40,VALID,1.33359,
2009-09-28, 02:37:05,VALID,996.591,VALID,0,VALID,85.0397,VALID,0,VALID,20.9315,VALID,38,VALID,1.64961,
2009-09-28, 02:38:05,VALID,996.555,VALID,0,VALID,85.2457,VALID,0,VALID,20.8551,VALID,28,VALID,1.59805,
2009-09-28, 02:39:05,VALID,996.575,VALID,0,VALID,85.6883,VALID,0,VALID,20.6976,VALID,27,VALID,1.6375,
2009-09-28, 02:40:05,VALID,996.57,VALID,0,VALID,86.0392,VALID,0,VALID,20.5611,VALID,14,VALID,1.53555,
2009-09-28, 02:41:05,VALID,996.546,VALID,0,VALID,86.7335,VALID,0,VALID,20.4636,VALID,4,VALID,2.00156,
2009-09-28, 02:42:05,VALID,996.593,VALID,0,VALID,86.9243,VALID,0,VALID,20.4457,VALID,353,VALID,1.00273,
2009-09-28, 02:43:05,VALID,996.619,VALID,0,VALID,87.2066,VALID,0,VALID,20.4067,VALID,7,VALID,0.842578,
2009-09-28, 02:44:05,VALID,996.568,VALID,0,VALID,86.9853,VALID,0,VALID,20.3856,VALID,42,VALID,1.3418,
2009-09-28, 02:45:05,VALID,996.583,VALID,0,VALID,87.6033,VALID,0,VALID,20.3467,VALID,36,VALID,1.89766,
2009-09-28, 02:46:05,VALID,996.573,VALID,0,VALID,87.3363,VALID,0,VALID,20.3677,VALID,33,VALID,1.84375,
2009-09-28, 02:47:05,VALID,996.593,VALID,0,VALID,87.466,VALID,0,VALID,20.3677,VALID,22,VALID,2.21992,
2009-09-28, 02:48:05,VALID,996.645,VALID,0,VALID,87.4507,VALID,0,VALID,20.4067,VALID,41,VALID,1.21602,
2009-09-28, 02:49:05,VALID,996.634,VALID,0,VALID,87.466,VALID,0,VALID,20.4067,VALID,6,VALID,0.923437,
2009-09-28, 02:50:05,VALID,996.636,VALID,0,VALID,87.4507,VALID,0,VALID,20.3662,VALID,355,VALID,1.27773,
2009-09-28, 02:51:05,VALID,996.644,VALID,0,VALID,87.321,VALID,0,VALID,20.3872,VALID,18,VALID,0.925,
2009-09-28, 02:52:05,VALID,996.662,VALID,0,VALID,87.6033,VALID,0,VALID,20.3662,VALID,33,VALID,1.70859,
2009-09-28, 02:53:05,VALID,996.66,VALID,0,VALID,87.2066,VALID,0,VALID,20.3872,VALID,23,VALID,1.86133,
2009-09-28, 02:54:05,VALID,996.663,VALID,0,VALID,87.2447,VALID,0,VALID,20.3482,VALID,26,VALID,2.0793,
2009-09-28, 02:55:05,VALID,996.621,VALID,0,VALID,87.5117,VALID,0,VALID,20.3287,VALID,21,VALID,1.68867,
2009-09-28, 02:56:05,VALID,996.685,VALID,0,VALID,87.5194,VALID,0,VALID,20.3092,VALID,15,VALID,1.15859,
2009-09-28, 02:57:05,VALID,996.692,VALID,0,VALID,87.8169,VALID,0,VALID,20.3287,VALID,348,VALID,1.10547,
2009-09-28, 02:58:05,VALID,996.71,VALID,0,VALID,88.084,VALID,0,VALID,20.3872,VALID,315,VALID,0.860547,
2009-09-28, 02:59:05,VALID,996.776,VALID,0,VALID,88.206,VALID,0,VALID,20.4262,VALID,321,VALID,0.34375,
2009-09-28, 03:00:05,VALID,996.783,VALID,0,VALID,87.6186,VALID,0,VALID,20.3856,VALID,86,VALID,1.075,
2009-09-28, 03:01:05,VALID,996.764,VALID,0,VALID,87.6949,VALID,0,VALID,20.3482,VALID,44,VALID,0.715625,
2009-09-28, 03:02:05,VALID,996.778,VALID,0,VALID,87.527,VALID,0,VALID,20.3287,VALID,42,VALID,0.747266,
2009-09-28, 03:03:05,VALID,996.746,VALID,0,VALID,87.3134,VALID,0,VALID,20.3092,VALID,51,VALID,1.1582,
2009-09-28, 03:04:05,VALID,996.787,VALID,0,VALID,87.2676,VALID,0,VALID,20.2687,VALID,48,VALID,1.55469,
2009-09-28, 03:05:05,VALID,996.833,VALID,0,VALID,87.6033,VALID,0,VALID,20.2117,VALID,86,VALID,1.69687,
2009-09-28, 03:06:05,VALID,996.831,VALID,0,VALID,87.7406,VALID,0,VALID,20.1728,VALID,75,VALID,1.61523,
2009-09-28, 03:07:05,VALID,996.789,VALID,0,VALID,88.0916,VALID,0,VALID,20.1338,VALID,36,VALID,1.32578,
2009-09-28, 03:08:05,VALID,996.774,VALID,0,VALID,88.2594,VALID,0,VALID,20.1338,VALID,350,VALID,1.27266,
2009-09-28, 03:09:05,VALID,996.832,VALID,0,VALID,88.1221,VALID,0,VALID,20.1322,VALID,11,VALID,1.25039,
2009-09-28, 03:10:05,VALID,996.789,VALID,0,VALID,88.1374,VALID,0,VALID,20.0933,VALID,51,VALID,1.625,
2009-09-28, 03:11:05,VALID,996.858,VALID,0,VALID,88.7477,VALID,0,VALID,20.0753,VALID,37,VALID,1.3293,
2009-09-28, 03:12:05,VALID,996.828,VALID,0,VALID,89.0148,VALID,0.112286,VALID,20.0738,VALID,18,VALID,1.26016,
2009-09-28, 03:13:05,VALID,996.829,VALID,0,VALID,89.0071,VALID,0,VALID,20.0543,VALID,25,VALID,1.03008,
2009-09-28, 03:14:05,VALID,996.792,VALID,0,VALID,89.2132,VALID,0,VALID,20.0543,VALID,5,VALID,1.01172,
2009-09-28, 03:15:05,VALID,996.813,VALID,0,VALID,89.3963,VALID,0,VALID,20.0948,VALID,351,VALID,1.16875,
2009-09-28, 03:16:05,VALID,996.79,VALID,0,VALID,89.1521,VALID,0.112286,VALID,20.0738,VALID,32,VALID,1.10547,
2009-09-28, 03:17:05,VALID,996.788,VALID,0,VALID,89.2284,VALID,0.112286,VALID,20.0543,VALID,45,VALID,1.16367,
2009-09-28, 03:18:05,VALID,996.784,VALID,0,VALID,89.4039,VALID,0.112286,VALID,20.0348,VALID,45,VALID,0.806641,
2009-09-28, 03:19:05,VALID,996.739,VALID,0,VALID,89.4191,VALID,0,VALID,20.0168,VALID,39,VALID,0.691406,
2009-09-28, 03:20:05,VALID,996.749,VALID,0,VALID,89.7396,VALID,0,VALID,19.9568,VALID,43,VALID,0.733984,
2009-09-28, 03:21:05,VALID,996.778,VALID,0,VALID,89.9151,VALID,0.112286,VALID,19.9568,VALID,1,VALID,0.713281,
2009-09-28, 03:22:05,VALID,996.788,VALID,0,VALID,90.2355,VALID,0,VALID,19.9373,VALID,358,VALID,0.825781,
2009-09-28, 03:23:05,VALID,996.786,VALID,0,VALID,90.3423,VALID,0,VALID,19.9583,VALID,11,VALID,1.05742,
2009-09-28, 03:24:05,VALID,996.802,VALID,0,VALID,90.2813,VALID,0,VALID,19.9178,VALID,4,VALID,1.0457,
2009-09-28, 03:25:05,VALID,996.745,VALID,0,VALID,90.144,VALID,0,VALID,19.8789,VALID,360,VALID,0.958203,
2009-09-28, 03:26:05,VALID,996.719,VALID,0,VALID,90.3347,VALID,0,VALID,19.8594,VALID,352,VALID,1.25781,
2009-09-28, 03:27:05,VALID,996.755,VALID,0,VALID,90.1821,VALID,0.112286,VALID,19.8789,VALID,16,VALID,0.796094,
2009-09-28, 03:28:05,VALID,996.769,VALID,0,VALID,89.8159,VALID,0,VALID,19.8594,VALID,42,VALID,1.08047,
2009-09-28, 03:29:05,VALID,996.773,VALID,0,VALID,89.9151,VALID,0,VALID,19.8624,VALID,63,VALID,1.81523,
2009-09-28, 03:30:05,VALID,996.766,VALID,0,VALID,90.2889,VALID,0,VALID,19.8624,VALID,29,VALID,1.15313,
2009-09-28, 03:31:05,VALID,996.756,VALID,0,VALID,90.1974,VALID,0,VALID,19.8219,VALID,347,VALID,0.933594,
2009-09-28, 03:32:05,VALID,996.783,VALID,0,VALID,90.2126,VALID,0,VALID,19.8219,VALID,340,VALID,0.956641,
2009-09-28, 03:33:05,VALID,996.819,VALID,0,VALID,89.999,VALID,0,VALID,19.8429,VALID,345,VALID,0.621094,
2009-09-28, 03:34:05,VALID,996.808,VALID,0,VALID,89.6557,VALID,0,VALID,19.8219,VALID,349,VALID,0.326172,
2009-09-28, 03:35:05,VALID,996.8,VALID,0,VALID,89.6404,VALID,0,VALID,19.8039,VALID,349,VALID,0.439844,
2009-09-28, 03:36:05,VALID,996.822,VALID,0,VALID,89.7549,VALID,0,VALID,19.7844,VALID,350,VALID,0.526953,
2009-09-28, 03:37:05,VALID,996.822,VALID,0,VALID,89.7472,VALID,0,VALID,19.7829,VALID,50,VALID,0.853125,
2009-09-28, 03:38:05,VALID,996.851,VALID,0,VALID,89.8159,VALID,0,VALID,19.7829,VALID,53,VALID,0.720703,
2009-09-28, 03:39:04,VALID,996.835,VALID,0,VALID,89.6099,VALID,0,VALID,19.7829,VALID,17,VALID,0.518359,
2009-09-28, 03:40:04,VALID,996.811,VALID,0,VALID,89.8235,VALID,0,VALID,19.8024,VALID,326,VALID,0.923828,
2009-09-28, 03:41:04,VALID,996.838,VALID,0,VALID,89.7396,VALID,0,VALID,19.8819,VALID,324,VALID,0.257031,
2009-09-28, 03:42:04,VALID,996.856,VALID,0,VALID,89.4115,VALID,0,VALID,19.8999,VALID,324,VALID,0.0257812,
2009-09-28, 03:43:04,VALID,996.823,VALID,0,VALID,89.1674,VALID,0,VALID,19.9193,VALID,324,VALID,0.391797,
2009-09-28, 03:44:04,VALID,996.851,VALID,0,VALID,88.7401,VALID,0,VALID,19.8999,VALID,15,VALID,0.680078,
2009-09-28, 03:45:04,VALID,996.868,VALID,0,VALID,89.2055,VALID,0,VALID,19.9193,VALID,66,VALID,1.41367,
2009-09-28, 03:46:04,VALID,996.897,VALID,0,VALID,89.2742,VALID,0,VALID,19.9583,VALID,69,VALID,0.895312,
2009-09-28, 03:47:04,VALID,996.87,VALID,0,VALID,88.9919,VALID,0,VALID,19.9583,VALID,69,VALID,0.261328,